FW2734 Weather Reports


time (UTC)temp
F
wind
direction
speed
knots
gust
knots
rain 1hr
in
rain 24hr
in
rain mn
in
humidity
%
barometer
mb
20260506103051 50 32 3.5 8.7 0.00 1.13 0.66 89 1006.2
20260506102551 50 34 3.5 8.7 0.00 1.13 0.66 89 1006.2
20260506102053 49 8 3.5 7.0 0.00 1.13 0.66 89 1006.2
20260506101553 49 6 2.6 9.6 0.00 1.13 0.66 89 1006.2
20260506101051 49 23 2.6 9.6 0.00 1.13 0.66 89 1006.2
20260506100548 49 5 3.5 9.6 0.00 1.13 0.66 89 1006.1
20260506100051 49 310 4.3 7.8 0.00 1.13 0.66 89 1006.0
20260506095551 49 50 3.5 7.0 0.00 1.13 0.66 89 1005.9
20260506095050 49 353 2.6 8.7 0.00 1.13 0.66 90 1006.0
20260506094553 49 23 2.6 8.7 0.00 1.13 0.66 89 1005.9
20260506094050 49 317 3.5 8.7 0.00 1.13 0.66 89 1005.8
20260506093554 50 345 2.6 7.8 0.00 1.13 0.66 89 1005.9
20260506093055 50 331 2.6 7.8 0.00 1.13 0.66 89 1005.8
20260506092551 51 292 2.6 8.7 0.00 1.13 0.66 90 1005.7
20260506092053 50 6 3.5 10.4 0.00 1.13 0.66 90 1005.7
20260506091552 50 340 5.2 10.4 0.00 1.13 0.66 90 1005.7
20260506091050 50 352 4.3 10.4 0.00 1.13 0.66 90 1005.7
20260506090552 49 39 5.2 10.4 0.00 1.13 0.66 90 1005.7
20260506090051 49 18 5.2 10.4 0.00 1.13 0.66 91 1005.7
20260506085551 50 1 4.3 8.7 0.00 1.13 0.66 91 1005.6
20260506085051 50 340 3.5 8.7 0.00 1.13 0.66 92 1005.5
20260506084553 50 55 4.3 8.7 0.00 1.13 0.66 92 1005.6
20260506084053 49 19 2.6 7.8 0.00 1.13 0.66 92 1005.5
20260506083548 49 7 3.5 7.0 0.00 1.13 0.66 92 1005.6
20260506083115 48 6 3.5 7.8 0.00 1.13 0.66 92 1005.6
20260506082550 48 308 1.7 7.8 0.00 1.13 0.66 92 1005.6
20260506082052 48 20 3.5 7.8 0.01 1.13 0.66 92 1005.6
20260506081553 48 16 3.5 7.8 0.01 1.13 0.66 92 1005.5
20260506081052 48 330 3.5 7.8 0.01 1.13 0.66 92 1005.5
20260506080552 48 330 2.6 7.8 0.01 1.13 0.66 92 1005.5
20260506073054 48 333 3.5 7.8 0.00 1.12 0.65 93 1005.2
20260506072551 48 327 1.7 6.1 0.00 1.12 0.65 93 1005.3
20260506072050 48 356 2.6 6.1 0.00 1.11 0.64 93 1005.2
20260506071556 48 303 1.7 7.0 0.00 1.11 0.64 93 1005.1
20260506071048 48 20 1.7 7.8 0.00 1.11 0.64 93 1005.1
20260506070552 48 345 4.3 7.8 0.00 1.11 0.64 93 1005.1
20260506070121 48 2 3.5 7.0 0.00 1.11 0.64 93 1005.0
20260506062050 48 6 1.7 7.0 0.00 1.11 0.64 93 1004.8
20260506061557 48 13 3.5 7.0 0.00 1.11 0.64 93 1004.8
20260506061051 48 7 3.5 6.1 0.00 1.11 0.64 94 1004.8
20260506060552 48 335 2.6 6.1 0.00 1.11 0.64 93 1004.6
20260506051050 48 360 0.9 3.5 0.00 1.11 0.63 94 1004.4
20260506050550 48 51 0.9 4.3 0.00 1.11 0.63 93 1004.4
20260506045052 48 6 2.6 5.2 0.01 1.11 0.63 94 1004.4
20260506044602 48 356 2.6 5.2 0.01 1.11 0.63 94 1004.4
20260506044048 48 1 2.6 6.1 0.01 1.11 0.63 94 1004.4
20260506043551 48 13 2.6 6.1 0.02 1.11 0.63 94 1004.4
20260506043059 48 8 1.7 4.3 0.02 1.11 0.63 94 1004.3
20260506042551 48 10 1.7 4.3 0.03 1.11 0.63 94 1004.5
20260506042050 48 34 1.7 3.5 0.03 1.11 0.63 94 1004.5
20260506041619 48 296 0.9 3.5 0.04 1.11 0.63 94 1004.5
20260506041048 48 297 0.9 3.5 0.05 1.10 0.62 93 1004.5
20260506040552 48 322 0.9 4.3 0.05 1.10 0.62 93 1004.5
20260506040059 48 300 1.7 4.3 0.06 1.10 0.62 93 1004.5
20260506035553 48 262 0.9 4.3 0.07 1.10 0.62 93 1004.5
20260506035051 48 0 1.7 4.3 0.07 1.09 0.62 93 1004.6
20260506034559 48 264 1.7 3.5 0.07 1.09 0.62 93 1004.6
20260506034050 49 0 0.9 3.5 0.07 1.09 0.62 94 1004.6
20260506033550 49 234 0.0 2.6 0.07 1.08 0.61 94 1004.6
20260506033055 49 0 0.0 1.7 0.09 1.08 0.61 94 1004.5
20260506032552 49 0 0.0 1.7 0.08 1.07 0.60 94 1004.6
20260506032053 49 203 0.0 2.6 0.08 1.07 0.59 94 1004.6
20260506031550 49 255 0.9 2.6 0.07 1.06 0.59 93 1004.6
20260506031049 49 0 0.9 2.6 0.06 1.04 0.57 94 1004.6
20260506030551 49 0 0.0 3.5 0.06 1.03 0.56 94 1004.6
20260506030059 49 283 0.9 3.5 0.07 1.03 0.56 94 1004.6
20260506025550 49 339 1.7 3.5 0.06 1.03 0.55 93 1004.8
20260506025051 49 281 0.9 4.3 0.05 1.03 0.55 93 1004.6
20260506024605 49 0 0.9 4.3 0.04 1.02 0.54 93 1004.7
20260506024048 49 0 0.0 2.6 0.04 1.02 0.54 94 1004.7
20260506023548 49 0 0.0 6.1 0.03 1.01 0.53 94 1004.6
20260506023056 49 0 0.0 6.1 0.03 1.00 0.51 94 1004.6
20260506022550 49 333 1.7 6.1 0.03 1.00 0.51 93 1004.6
20260506022050 49 0 0.9 5.2 0.02 0.99 0.51 93 1004.6
20260506021557 49 309 2.6 5.2 0.03 0.99 0.51 93 1004.6
20260506021051 49 47 1.7 5.2 0.03 0.99 0.51 93 1004.6
20260506020551 49 27 1.7 5.2 0.03 0.98 0.50 93 1004.6
20260506020108 49 23 0.9 7.0 0.03 0.97 0.49 93 1004.6
20260506015551 49 293 3.5 8.7 0.04 0.97 0.49 93 1004.6
20260506015051 49 338 2.6 8.7 0.05 0.97 0.49 93 1004.6
20260506014612 49 41 2.6 7.0 0.07 0.97 0.49 93 1004.7
20260506014048 49 49 3.5 7.0 0.08 0.97 0.49 93 1004.6
20260506013551 49 15 1.7 7.0 0.12 0.97 0.49 93 1004.7
20260506013059 49 0 0.9 5.2 0.13 0.96 0.48 93 1004.8
20260506012548 49 351 0.9 4.3 0.14 0.96 0.48 93 1004.8
20260506012048 50 333 1.7 4.3 0.14 0.96 0.48 93 1004.8
20260506011623 50 356 1.7 6.1 0.13 0.96 0.48 93 1004.8
20260506011048 50 332 2.6 6.1 0.12 0.95 0.47 93 1004.8
20260506010553 50 320 0.0 4.3 0.11 0.94 0.46 93 1004.8
20260506010053 50 9 1.7 4.3 0.10 0.92 0.44 93 1004.8
20260506005550 50 356 1.7 5.2 0.11 0.92 0.44 93 1004.9
20260506005050 50 3 2.6 5.2 0.10 0.92 0.44 93 1004.9
20260506004608 50 350 2.6 5.2 0.08 0.90 0.42 93 1004.9
20260506004050 50 318 1.7 4.3 0.08 0.88 0.40 93 1005.0
20260506003550 50 347 2.6 4.3 0.06 0.84 0.36 93 1005.1
20260506003100 50 24 1.7 4.3 0.07 0.83 0.35 93 1005.1
20260506002553 50 43 0.9 4.3 0.08 0.82 0.34 93 1005.1
20260506002050 51 39 1.7 4.3 0.10 0.82 0.34 93 1005.1
20260506001603 51 51 0.9 3.5 0.11 0.82 0.34 93 1005.2
20260506001050 51 63 0.9 4.3 0.11 0.82 0.34 93 1005.2
20260506000553 51 4 1.7 5.2 0.13 0.82 0.34 93 1005.2
20260506000121 51 63 1.7 5.2 0.14 0.82 0.34 93 1005.3
20260505235552 51 34 2.6 5.2 0.14 0.81 0.33 93 1005.3
20260505235050 51 56 1.7 4.3 0.15 0.81 0.33 93 1005.4
20260505234555 51 19 1.7 6.1 0.17 0.81 0.33 93 1005.4
20260505234051 51 60 3.5 6.1 0.17 0.80 0.32 93 1005.5
20260505233550 51 38 1.7 4.3 0.15 0.77 0.29 93 1005.5
20260505233100 51 47 1.7 4.3 0.15 0.76 0.28 93 1005.5
20260505232548 51 4 1.7 4.3 0.14 0.74 0.25 93 1005.6
20260505232053 51 16 1.7 4.3 0.15 0.72 0.24 93 1005.7
20260505231613 51 9 0.9 4.3 0.18 0.71 0.23 93 1005.7
20260505231052 51 70 1.7 4.3 0.19 0.70 0.22 93 1005.7
20260505230548 51 8 1.7 3.5 0.19 0.69 0.21 93 1005.7
20260505225554 51 11 0.9 3.5 0.19 0.66 0.18 93 1005.8
20260505225053 51 53 0.9 3.5 0.18 0.66 0.18 93 1005.8
20260505224557 51 42 0.9 3.5 0.18 0.64 0.16 93 1005.8
20260505224052 51 44 0.9 3.5 0.16 0.62 0.14 93 1005.9
20260505223556 51 20 0.0 3.5 0.14 0.61 0.13 93 1006.0
20260505223050 51 356 0.9 3.5 0.14 0.60 0.12 93 1005.9
20260505222552 51 30 0.0 3.5 0.13 0.59 0.11 93 1006.0
20260505222053 51 24 0.9 3.5 0.10 0.55 0.07 93 1006.0
20260505221558 51 46 0.0 3.5 0.08 0.53 0.05 93 1006.0
20260505221052 51 3 0.9 3.5 0.06 0.50 0.02 93 1006.0
20260505220552 51 20 0.9 3.5 0.05 0.49 0.01 93 1006.0
20260505220052 51 49 0.9 2.6 0.05 0.48 0.00 93 1006.0
20260505215552 52 55 0.9 2.6 0.04 0.48 0.47 93 1006.0
20260505215053 52 46 0.9 2.6 0.05 0.48 0.47 93 1006.1
20260505214552 52 50 0.0 1.7 0.05 0.47 0.46 93 1006.1
20260505214053 52 0 0.0 1.7 0.05 0.47 0.46 93 1006.1
20260505213552 52 0 0.0 1.7 0.05 0.47 0.46 93 1006.2
20260505213053 52 0 0.0 1.7 0.05 0.46 0.45 93 1006.1
20260505212554 52 0 0.0 1.7 0.06 0.46 0.45 93 1006.1
20260505212053 52 0 0.0 1.7 0.06 0.46 0.45 93 1006.2
20260505211550 52 0 0.0 2.6 0.06 0.45 0.44 93 1006.3
20260505211053 52 0 0.0 2.6 0.06 0.44 0.44 93 1006.4
20260505210552 52 83 0.0 2.6 0.07 0.44 0.44 93 1006.4
20260505210054 52 0 0.0 3.5 0.07 0.44 0.43 93 1006.4
20260505205553 52 45 0.9 3.5 0.06 0.42 0.41 93 1006.4
20260505205053 52 54 1.7 3.5 0.06 0.42 0.41 93 1006.5
20260505204559 52 46 0.0 1.7 0.06 0.41 0.40 93 1006.5
20260505204052 52 32 0.0 1.7 0.07 0.41 0.40 93 1006.5
20260505203552 52 57 0.0 0.9 0.07 0.41 0.40 93 1006.5
20260505203100 52 0 0.0 1.7 0.07 0.40 0.40 93 1006.5
20260505202552 52 0 0.0 2.6 0.07 0.40 0.39 92 1006.5
20260505202054 52 0 0.0 3.5 0.08 0.40 0.39 92 1006.6
20260505201551 52 103 1.7 3.5 0.08 0.39 0.38 92 1006.5
20260505201052 52 133 0.9 2.6 0.08 0.38 0.37 92 1006.6
20260505200552 52 0 0.0 2.6 0.08 0.37 0.37 92 1006.5
20260505200054 53 138 0.0 1.7 0.08 0.37 0.36 92 1006.5
20260505195552 53 87 0.9 2.6 0.07 0.36 0.35 93 1006.5
20260505195052 53 0 0.9 2.6 0.08 0.36 0.35 92 1006.5
20260505194606 53 71 0.9 2.6 0.07 0.35 0.34 92 1006.4
20260505194052 53 89 0.9 2.6 0.07 0.34 0.33 92 1006.5
20260505193552 53 69 0.9 2.6 0.07 0.33 0.33 92 1006.5
20260505193054 53 59 0.0 3.5 0.07 0.33 0.32 92 1006.4
20260505192552 53 40 0.9 3.5 0.07 0.32 0.31 92 1006.4
20260505192052 53 49 0.9 3.5 0.07 0.31 0.30 92 1006.4
20260505191605 53 53 1.7 3.5 0.07 0.30 0.29 92 1006.4
20260505191055 53 80 0.9 2.6 0.06 0.29 0.29 92 1006.4
20260505190552 53 65 0.0 2.6 0.05 0.29 0.28 92 1006.4
20260505190055 53 0 0.9 2.6 0.04 0.28 0.27 92 1006.4
20260505185552 53 66 0.0 2.6 0.05 0.28 0.27 92 1006.4
20260505185052 53 67 0.0 2.6 0.04 0.27 0.26 92 1006.4
20260505184552 53 60 0.9 2.6 0.04 0.27 0.26 92 1006.3
20260505184052 53 62 0.9 1.7 0.03 0.26 0.25 92 1006.4
20260505183553 53 100 0.0 1.7 0.02 0.25 0.24 92 1006.4
20260505183057 53 0 0.0 1.7 0.02 0.25 0.24 91 1006.4
20260505182554 53 49 0.0 1.7 0.02 0.24 0.23 91 1006.4
20260505182055 53 0 0.0 1.7 0.02 0.24 0.23 91 1006.4
20260505181556 54 54 0.0 0.9 0.01 0.23 0.22 91 1006.5
20260505181053 54 0 0.0 0.9 0.01 0.23 0.22 91 1006.4
20260505180552 54 0 0.0 0.9 0.02 0.23 0.22 91 1006.4
20260505180057 53 0 0.0 0.9 0.02 0.23 0.22 91 1006.5
20260505175552 53 0 0.0 0.9 0.02 0.23 0.22 91 1006.5
20260505175052 53 0 0.0 0.9 0.02 0.23 0.22 91 1006.5
20260505174553 53 0 0.0 1.7 0.03 0.23 0.22 91 1006.5
20260505174052 54 0 0.0 1.7 0.03 0.23 0.22 91 1006.5
20260505173553 54 0 0.0 1.7 0.03 0.23 0.22 91 1006.5
20260505173112 54 0 0.0 0.9 0.03 0.23 0.22 90 1006.6
20260505172552 54 0 0.0 1.7 0.03 0.22 0.21 91 1006.6
20260505172052 54 0 0.0 1.7 0.03 0.22 0.21 90 1006.6
20260505171620 54 271 0.0 1.7 0.03 0.22 0.21 90 1006.6
20260505171052 54 273 0.0 1.7 0.03 0.22 0.20 90 1006.6
20260505170551 54 270 0.9 1.7 0.03 0.22 0.20 90 1006.6
20260505170055 54 268 0.0 1.7 0.03 0.22 0.20 90 1006.7
20260505165552 54 0 0.0 1.7 0.03 0.23 0.19 90 1006.6
20260505165053 54 303 0.0 1.7 0.03 0.23 0.19 90 1006.7
20260505164601 54 299 0.0 0.9 0.03 0.22 0.18 90 1006.7
20260505164050 54 0 0.0 1.7 0.03 0.22 0.18 90 1006.7
20260505163550 54 0 0.0 1.7 0.03 0.22 0.18 90 1006.6
20260505163055 54 0 0.0 1.7 0.03 0.22 0.18 90 1006.7
20260505162549 54 0 0.0 1.7 0.03 0.21 0.17 90 1006.7
20260505162050 54 0 0.0 2.6 0.03 0.21 0.17 90 1006.7
20260505161556 54 0 0.0 2.6 0.03 0.21 0.17 90 1006.7
20260505161050 54 234 0.0 2.6 0.03 0.20 0.16 90 1006.7
20260505160554 54 231 0.9 2.6 0.03 0.20 0.16 90 1006.7
20260505153056 54 245 2.6 5.2 0.03 0.21 0.14 89 1006.9
20260505152549 54 236 1.7 5.2 0.02 0.20 0.14 89 1007.0
20260505152049 54 228 1.7 7.0 0.03 0.20 0.14 89 1006.9
20260505151600 54 249 2.6 7.0 0.03 0.20 0.14 89 1007.0
20260505151050 54 234 3.5 7.0 0.03 0.19 0.13 88 1007.0
20260505150548 54 248 2.6 7.0 0.03 0.19 0.13 88 1007.0
20260505150109 54 207 3.5 7.8 0.04 0.19 0.13 88 1007.1
20260505140548 56 211 0.9 3.5 0.07 0.19 0.09 89 1007.2
20260505124556 58 0 0.0 0.9 0.00 0.12 0.00 83 1007.5
20260505124054 58 0 0.0 0.9 0.00 0.12 0.00 83 1007.4
20260505123553 58 56 0.0 0.9 0.00 0.12 0.00 83 1007.5
20260505123100 58 48 0.0 1.7 0.00 0.12 0.00 83 1007.3
20260505122550 58 0 0.0 1.7 0.00 0.12 0.00 82 1007.4
20260505122050 58 0 0.0 2.6 0.00 0.12 0.00 81 1007.3
20260505121624 58 0 0.0 2.6 0.00 0.12 0.00 81 1007.4
20260505121051 59 0 0.9 1.7 0.00 0.12 0.00 81 1007.4
20260505120550 59 0 0.0 1.7 0.00 0.12 0.00 81 1007.6
20260505120050 58 103 0.0 1.7 0.00 0.12 0.00 80 1007.6
20260505115549 59 5 0.0 0.9 0.00 0.16 0.00 81 1007.7
20260505115048 58 0 0.0 2.6 0.00 0.16 0.00 81 1007.7
20260505114551 58 0 0.0 2.6 0.00 0.16 0.00 80 1007.7
20260505114048 58 0 0.9 3.5 0.00 0.16 0.00 81 1007.8
20260505113550 58 23 0.9 3.5 0.00 0.16 0.00 82 1007.9
20260505113057 59 73 1.7 5.2 0.00 0.16 0.00 82 1008.0
20260505112550 59 23 1.7 5.2 0.00 0.16 0.00 82 1007.9
20260505112050 59 17 1.7 4.3 0.00 0.16 0.00 81 1007.9
20260505111554 59 0 0.9 4.3 0.00 0.16 0.00 82 1008.0
20260505111050 59 325 0.9 3.5 0.00 0.16 0.00 83 1007.9
20260505110547 59 0 0.9 5.2 0.00 0.16 0.00 81 1008.1